Terminal Aerodrome Forecast
Issued by NWS

Home | Current Version | Previous Version | Text Only | Print | Product List | Glossary On
Versions: 1 2 3 4 5 6 7 8 9 10 11 12 13 14 15 16 17 18 19 20 21 22 23 24 25
000
FTUS43 KLSX 190500
TAFSUS
TAF
KSUS 190520Z 1906/2006 00000KT 3SM BR SKC
      TEMPO 1906/1909 1/2SM FG
     FM190900 00000KT 2SM BR SKC
      TEMPO 1909/1913 1/2SM FG VV001
     FM191500 14007KT P6SM FEW040=

USA.gov is the U.S. government's official web portal to all federal, state and local government web resources and services.